STARLINK-36100, 66942

Orbit data source: Space-Track

STARLINK-36100, 66942 is a payload satellite owned by SpaceX/Seattle (US) in LEO that was launched on Sun, 07 Dec 2025 UTC via an FALCON 9 launch vehicle from the Air Force Western Test Range (AFWTR). Payload-class satellites include a variety of spacecraft equipped with specific instruments for various scientific and technological missions. These include communications satellites like Starlink; space stations such as the ISS; scientific satellites like the Hubble; Earth observation satellites from companies like Planet Labs, Umbra, and HawkEye 360; GPS; miniature CubeSats for education and research; and military/defense satellites.

Loading next visibility...
Identifier
66942, 2025-286T
Orbit
LEO
Country
Flag of USUS
Related business
Manufacturer
SpaceX/Seattle
Mission
Operational Commercial Communications
Bus & Motor
STARLINK V2MO, Unknown motor
Mass
575 kg wet, ~530 kg dry
Launch date (UTC)
2025-12-07 (6 months ago)
Launch vehicle
FALCON 9
Launch site
Air Force Western Test Range (AFWTR)
Object type
Payload
Rocket body
Debris
Shape & HBR
Box + 2 Pan, 17.7 m
Radar Cross Section
36.964 m², Large (>1 m²)

Expand to show TLE details & history
Last TLE update: 10 hours ago

TLE from 10 hours ago
0 STARLINK-36100
1 66942U 25286T   26171.44865199  .00027873  00000-0  83255-3 0  9996
2 66942  53.1603 240.1525 0001412  82.5137 277.6026 15.34417571 31091
Epoch: 2026-06-20T10:46Z
TLE epoch observation values (Epoch: 2026-06-20T10:46:03.531Z)
Latitude
-0.00004°
Longitude
169.97463°
Altitude
463.425 km
Speed
7.636 km/s
True Right ascension
16h 00m 36s
True Declination
0° 00' 00"
Sunlit
Object was in full shadow at epoch
Visualization orbit readout
Latitude
Unknown
Longitude
Unknown
Altitude
Unknown
Speed
Unknown
Apparent Right ascension
Unknown
Apparent Declination
Unknown
Sunlit
N/A
Visualization observer readout
Local Sidereal Time
07:15:59
Azimuth
Unknown
Elevation
Unknown
Doppler factor
Unknown
Orbital elements
Apogee altitude
463.874 km
Perigee altitude
461.942 km
Semi-major axis
6,841.045 km
Eccentricity
0.00014
Inclination
53.1603°
RAAN
240.1525°
Arg. of periapsis
82.5137°
True anomaly
277.58656°
Mean anomaly
277.6026°
Eccentric anomaly
277.59458°
Mean motion
3.83583 °/min
Orbital period
93.85 mins
BSTAR
0.00083255
Loading maneuver chart data...
Computing Atmospheric mass density...
Loading historical data...
Loading historical data...
Loading historical data...
Loading historical data...
Loading historical data...
Loading historical data...
Loading historical data...

Documentation

Showing up to 5 results
|